Time,TemperatureF,DewpointF,PressureIn,WindDirection,WindDirectionDegrees,WindSpeedMPH,WindSpeedGustMPH,Humidity,HourlyPrecipIn,Conditions,Clouds,dailyrainin,SoftwareType,DateUTC
2013-04-17 00:03:00,56.0,51.0,30.11,SSE,155,1.0,4.0,84,0.00,,,0.00,,2013-04-17 04:03:00,
2013-04-17 00:13:00,56.0,51.0,30.11,SSE,155,1.0,4.0,84,0.00,,,0.00,,2013-04-17 04:13:00,
2013-04-17 00:23:00,56.0,51.0,30.12,SSE,155,0.0,2.0,84,0.00,,,0.00,,2013-04-17 04:23:00,
2013-04-17 00:33:00,57.0,52.0,30.12,SE,139,0.0,3.0,83,0.00,,,0.00,,2013-04-17 04:33:00,
2013-04-17 00:42:00,57.0,52.0,30.12,SE,139,0.0,3.0,83,0.00,,,0.00,,2013-04-17 04:42:00,
2013-04-17 00:52:00,58.0,53.0,30.12,SSE,149,0.0,2.0,82,0.00,,,0.00,,2013-04-17 04:52:00,
2013-04-17 01:03:00,59.0,53.0,30.11,SSW,193,1.0,4.0,80,0.00,,,0.00,,2013-04-17 05:03:00,
2013-04-17 01:12:00,59.0,53.0,30.11,SSW,193,1.0,4.0,80,0.00,,,0.00,,2013-04-17 05:12:00,
2013-04-17 01:22:00,59.0,52.0,30.11,SSE,153,0.0,3.0,79,0.00,,,0.00,,2013-04-17 05:22:00,
2013-04-17 01:32:00,59.0,52.0,30.11,SSE,150,1.0,4.0,79,0.00,,,0.00,,2013-04-17 05:32:00,
2013-04-17 01:42:00,59.0,52.0,30.11,SSE,150,1.0,4.0,79,0.00,,,0.00,,2013-04-17 05:42:00,
2013-04-17 01:52:00,60.0,53.0,30.10,WSW,239,0.0,3.0,79,0.00,,,0.00,,2013-04-17 05:52:00,
2013-04-17 02:02:00,60.0,53.0,30.10,NW,325,0.0,4.0,79,0.00,,,0.00,,2013-04-17 06:02:00,
2013-04-17 02:12:00,60.0,53.0,30.10,NW,325,0.0,4.0,79,0.00,,,0.00,,2013-04-17 06:12:00,
2013-04-17 02:22:00,60.0,53.0,30.11,South,174,0.0,2.0,79,0.00,,,0.00,,2013-04-17 06:22:00,
2013-04-17 02:32:00,60.0,53.0,30.11,SSE,149,0.0,2.0,79,0.00,,,0.00,,2013-04-17 06:32:00,
2013-04-17 02:42:00,60.0,53.0,30.11,SSE,149,0.0,2.0,79,0.00,,,0.00,,2013-04-17 06:42:00,
2013-04-17 02:52:00,60.0,53.0,30.11,WSW,243,0.0,2.0,79,0.00,,,0.00,,2013-04-17 06:52:00,
2013-04-17 03:02:00,60.0,53.0,30.11,NNW,335,0.0,2.0,79,0.00,,,0.00,,2013-04-17 07:02:00,
2013-04-17 03:12:00,60.0,53.0,30.11,NNW,335,0.0,2.0,79,0.00,,,0.00,,2013-04-17 07:12:00,
2013-04-17 03:22:00,60.0,53.0,30.10,North,354,0.0,3.0,79,0.00,,,0.00,,2013-04-17 07:22:00,
2013-04-17 03:32:00,61.0,54.0,30.10,South,169,1.0,5.0,79,0.00,,,0.00,,2013-04-17 07:32:00,
2013-04-17 03:42:00,61.0,54.0,30.10,South,169,1.0,5.0,79,0.00,,,0.00,,2013-04-17 07:42:00,
2013-04-17 03:52:00,61.0,54.0,30.10,South,172,0.0,4.0,79,0.00,,,0.00,,2013-04-17 07:52:00,
2013-04-17 04:02:00,60.0,54.0,30.10,SSE,158,0.0,1.0,80,0.00,,,0.00,,2013-04-17 08:02:00,
2013-04-17 04:12:00,60.0,54.0,30.10,SSE,158,0.0,1.0,80,0.00,,,0.00,,2013-04-17 08:12:00,
2013-04-17 04:22:00,60.0,54.0,30.10,ESE,110,0.0,1.0,80,0.00,,,0.00,,2013-04-17 08:22:00,
2013-04-17 04:32:00,60.0,54.0,30.09,SW,221,0.0,2.0,81,0.00,,,0.00,,2013-04-17 08:32:00,
2013-04-17 04:42:00,60.0,54.0,30.09,SW,221,0.0,2.0,81,0.00,,,0.00,,2013-04-17 08:42:00,
2013-04-17 04:52:00,61.0,55.0,30.10,NNW,343,0.0,2.0,81,0.00,,,0.00,,2013-04-17 08:52:00,
2013-04-17 05:02:00,61.0,55.0,30.10,NNW,338,0.0,3.0,81,0.00,,,0.00,,2013-04-17 09:02:00,
2013-04-17 05:12:00,61.0,55.0,30.10,NNW,338,0.0,3.0,81,0.00,,,0.00,,2013-04-17 09:12:00,
2013-04-17 05:22:00,61.0,55.0,30.10,NNW,332,0.0,2.0,81,0.00,,,0.00,,2013-04-17 09:22:00,
2013-04-17 05:33:00,61.0,55.0,30.10,NW,321,0.0,5.0,82,0.00,,,0.00,,2013-04-17 09:33:00,
2013-04-17 05:42:00,61.0,55.0,30.10,NW,321,0.0,5.0,82,0.00,,,0.00,,2013-04-17 09:42:00,
2013-04-17 05:52:00,61.0,55.0,30.09,NNW,333,0.0,4.0,82,0.00,,,0.00,,2013-04-17 09:52:00,
2013-04-17 06:03:00,61.0,56.0,30.09,NW,316,1.0,4.0,83,0.00,,,0.00,,2013-04-17 10:03:00,
2013-04-17 06:12:00,61.0,56.0,30.09,NW,316,1.0,4.0,83,0.00,,,0.00,,2013-04-17 10:12:00,
2013-04-17 06:23:00,61.0,55.0,30.09,NNW,340,3.0,5.0,82,0.00,,,0.00,,2013-04-17 10:23:00,
2013-04-17 06:32:00,60.0,55.0,30.09,NNW,340,3.0,10.0,84,0.01,,,0.01,,2013-04-17 10:32:00,
2013-04-17 06:43:00,60.0,55.0,30.09,NNW,340,3.0,10.0,84,0.01,,,0.01,,2013-04-17 10:43:00,
2013-04-17 06:52:00,59.0,54.0,30.11,NNW,347,5.0,10.0,85,0.01,,,0.01,,2013-04-17 10:52:00,
2013-04-17 07:02:00,58.0,54.0,30.13,NE,39,4.0,11.0,86,0.01,,,0.01,,2013-04-17 11:02:00,
2013-04-17 07:12:00,58.0,54.0,30.13,NE,39,4.0,11.0,86,0.01,,,0.01,,2013-04-17 11:12:00,
2013-04-17 07:22:00,57.0,53.0,30.14,West,260,2.0,7.0,87,0.01,,,0.01,,2013-04-17 11:22:00,
2013-04-17 07:32:00,57.0,53.0,30.15,ENE,70,2.0,7.0,87,0.00,,,0.01,,2013-04-17 11:32:00,
2013-04-17 07:42:00,57.0,53.0,30.15,ENE,70,2.0,7.0,87,0.00,,,0.01,,2013-04-17 11:42:00,
2013-04-17 07:52:00,56.0,51.0,30.17,North,349,3.0,10.0,84,0.00,,,0.01,,2013-04-17 11:52:00,
2013-04-17 08:03:00,56.0,50.0,30.18,NNW,333,2.0,11.0,79,0.00,,,0.01,,2013-04-17 12:03:00,
2013-04-17 08:12:00,56.0,50.0,30.18,NNW,333,2.0,11.0,79,0.00,,,0.01,,2013-04-17 12:12:00,
2013-04-17 08:22:00,56.0,49.0,30.19,NW,305,3.0,9.0,77,0.00,,,0.01,,2013-04-17 12:22:00,
2013-04-17 08:32:00,56.0,48.0,30.19,NW,325,2.0,7.0,74,0.00,,,0.01,,2013-04-17 12:32:00,
2013-04-17 08:42:00,56.0,48.0,30.19,NW,325,2.0,7.0,74,0.00,,,0.01,,2013-04-17 12:42:00,
2013-04-17 08:52:00,56.0,47.0,30.19,NW,319,3.0,9.0,71,0.00,,,0.01,,2013-04-17 12:52:00,
2013-04-17 09:02:00,57.0,48.0,30.20,NNE,15,3.0,8.0,71,0.00,,,0.01,,2013-04-17 13:02:00,
2013-04-17 09:12:00,57.0,48.0,30.20,NNE,15,3.0,8.0,71,0.00,,,0.01,,2013-04-17 13:12:00,
2013-04-17 09:22:00,56.0,47.0,30.19,NE,52,3.0,9.0,71,0.00,,,0.01,,2013-04-17 13:22:00,
2013-04-17 09:32:00,56.0,46.0,30.19,NNW,346,3.0,8.0,70,0.00,,,0.01,,2013-04-17 13:32:00,
2013-04-17 09:42:00,56.0,46.0,30.19,NNW,346,3.0,8.0,70,0.00,,,0.01,,2013-04-17 13:42:00,
2013-04-17 09:52:00,57.0,47.0,30.20,NNW,339,3.0,7.0,70,0.00,,,0.01,,2013-04-17 13:52:00,
2013-04-17 10:02:00,57.0,47.0,30.20,NNW,328,4.0,10.0,69,0.00,,,0.01,,2013-04-17 14:02:00,
2013-04-17 10:12:00,57.0,47.0,30.20,NNW,328,4.0,10.0,69,0.00,,,0.01,,2013-04-17 14:12:00,
2013-04-17 10:22:00,57.0,46.0,30.20,NW,321,4.0,10.0,67,0.00,,,0.01,,2013-04-17 14:22:00,
2013-04-17 10:32:00,57.0,46.0,30.20,North,4,3.0,7.0,66,0.00,,,0.01,,2013-04-17 14:32:00,
2013-04-17 10:42:00,57.0,46.0,30.20,North,4,3.0,7.0,66,0.00,,,0.01,,2013-04-17 14:42:00,
2013-04-17 10:52:00,57.0,46.0,30.20,North,4,3.0,7.0,66,0.00,,,0.01,,2013-04-17 14:52:00,
2013-04-17 11:02:00,57.0,46.0,30.20,North,4,3.0,7.0,66,0.00,,,0.01,,2013-04-17 15:02:00,
2013-04-17 11:12:00,60.0,45.0,30.20,NNW,341,4.0,8.0,58,0.00,,,0.01,,2013-04-17 15:12:00,
2013-04-17 11:22:00,60.0,45.0,30.20,NNW,341,4.0,8.0,58,0.00,,,0.01,,2013-04-17 15:22:00,
2013-04-17 11:33:00,62.0,46.0,30.20,NNW,336,3.0,7.0,56,0.00,,,0.01,,2013-04-17 15:33:00,
2013-04-17 11:43:00,62.0,46.0,30.20,NNW,336,3.0,7.0,56,0.00,,,0.01,,2013-04-17 15:43:00,
2013-04-17 11:53:00,62.0,46.0,30.19,ENE,71,3.0,9.0,55,0.00,,,0.01,,2013-04-17 15:53:00,
2013-04-17 12:03:00,62.0,46.0,30.19,ENE,71,3.0,9.0,55,0.00,,,0.01,,2013-04-17 16:03:00,
2013-04-17 12:12:00,62.0,46.0,30.19,ENE,71,3.0,9.0,55,0.00,,,0.01,,2013-04-17 16:12:00,
2013-04-17 12:23:00,64.0,45.0,30.19,East,86,2.0,11.0,50,0.00,,,0.01,,2013-04-17 16:23:00,
2013-04-17 12:32:00,64.0,44.0,30.18,NE,50,3.0,11.0,49,0.00,,,0.01,,2013-04-17 16:32:00,
2013-04-17 12:42:00,64.0,44.0,30.18,NE,50,3.0,11.0,49,0.00,,,0.01,,2013-04-17 16:42:00,
2013-04-17 12:52:00,65.0,43.0,30.18,NW,308,3.0,9.0,45,0.00,,,0.01,,2013-04-17 16:52:00,
2013-04-17 13:02:00,66.0,43.0,30.18,NNW,333,2.0,9.0,44,0.00,,,0.01,,2013-04-17 17:02:00,
2013-04-17 13:12:00,66.0,43.0,30.18,NNW,333,2.0,9.0,44,0.00,,,0.01,,2013-04-17 17:12:00,
2013-04-17 13:22:00,66.0,43.0,30.17,NNW,336,3.0,10.0,43,0.00,,,0.01,,2013-04-17 17:22:00,
2013-04-17 13:33:00,66.0,42.0,30.17,ESE,102,4.0,9.0,42,0.00,,,0.01,,2013-04-17 17:33:00,
2013-04-17 13:42:00,66.0,42.0,30.17,ESE,102,4.0,9.0,42,0.00,,,0.01,,2013-04-17 17:42:00,
2013-04-17 13:52:00,67.0,43.0,30.16,ESE,104,2.0,8.0,41,0.00,,,0.01,,2013-04-17 17:52:00,
2013-04-17 14:02:00,69.0,43.0,30.17,NNE,22,3.0,6.0,39,0.00,,,0.01,,2013-04-17 18:02:00,
2013-04-17 14:12:00,69.0,43.0,30.17,NNE,22,3.0,6.0,39,0.00,,,0.01,,2013-04-17 18:12:00,
2013-04-17 14:22:00,68.0,42.0,30.17,SE,131,2.0,6.0,39,0.00,,,0.01,,2013-04-17 18:22:00,
2013-04-17 14:33:00,68.0,42.0,30.17,SE,131,2.0,6.0,39,0.00,,,0.01,,2013-04-17 18:33:00,
2013-04-17 14:42:00,68.0,42.0,30.17,SE,131,2.0,6.0,39,0.00,,,0.01,,2013-04-17 18:42:00,
2013-04-17 14:52:00,69.0,42.0,30.17,South,184,2.0,9.0,37,0.00,,,0.01,,2013-04-17 18:52:00,
2013-04-17 15:02:00,69.0,42.0,30.18,ESE,106,1.0,12.0,37,0.00,,,0.01,,2013-04-17 19:02:00,
2013-04-17 15:12:00,69.0,42.0,30.18,ESE,106,1.0,12.0,37,0.00,,,0.01,,2013-04-17 19:12:00,
2013-04-17 15:22:00,69.0,42.0,30.18,ESE,106,1.0,12.0,37,0.00,,,0.01,,2013-04-17 19:22:00,
2013-04-17 15:32:00,71.0,40.0,30.16,North,8,1.0,4.0,33,0.00,,,0.01,,2013-04-17 19:32:00,
2013-04-17 15:42:00,71.0,40.0,30.16,North,8,1.0,4.0,33,0.00,,,0.01,,2013-04-17 19:42:00,
2013-04-17 15:52:00,70.0,40.0,30.16,North,354,3.0,7.0,33,0.00,,,0.01,,2013-04-17 19:52:00,
2013-04-17 16:03:00,70.0,40.0,30.16,SE,131,2.0,4.0,33,0.00,,,0.01,,2013-04-17 20:03:00,
2013-04-17 16:12:00,70.0,40.0,30.16,SE,131,2.0,4.0,33,0.00,,,0.01,,2013-04-17 20:12:00,
2013-04-17 16:22:00,70.0,40.0,30.16,SE,131,2.0,4.0,33,0.00,,,0.01,,2013-04-17 20:22:00,
2013-04-17 16:33:00,70.0,40.0,30.16,SE,131,2.0,4.0,33,0.00,,,0.01,,2013-04-17 20:33:00,
2013-04-17 16:42:00,70.0,40.0,30.16,SE,131,2.0,4.0,33,0.00,,,0.01,,2013-04-17 20:42:00,
2013-04-17 16:52:00,71.0,39.0,30.16,NNW,346,2.0,5.0,31,0.00,,,0.01,,2013-04-17 20:52:00,
2013-04-17 17:03:00,70.0,37.0,30.16,ESE,120,2.0,4.0,30,0.00,,,0.01,,2013-04-17 21:03:00,
2013-04-17 17:12:00,70.0,37.0,30.16,ESE,120,2.0,4.0,30,0.00,,,0.01,,2013-04-17 21:12:00,
2013-04-17 17:22:00,71.0,37.0,30.16,NNW,343,1.0,4.0,29,0.00,,,0.01,,2013-04-17 21:22:00,
2013-04-17 17:33:00,69.0,41.0,30.18,SE,139,3.0,8.0,36,0.00,,,0.01,,2013-04-17 21:33:00,
2013-04-17 17:42:00,69.0,41.0,30.18,SE,139,3.0,8.0,36,0.00,,,0.01,,2013-04-17 21:42:00,
2013-04-17 17:53:00,69.0,40.0,30.18,South,177,3.0,7.0,35,0.00,,,0.01,,2013-04-17 21:53:00,
2013-04-17 18:02:00,68.0,41.0,30.19,SSE,149,3.0,8.0,37,0.00,,,0.01,,2013-04-17 22:02:00,
2013-04-17 18:12:00,68.0,41.0,30.19,SSE,149,3.0,8.0,37,0.00,,,0.01,,2013-04-17 22:12:00,
2013-04-17 18:22:00,67.0,41.0,30.19,SSE,160,4.0,9.0,38,0.00,,,0.01,,2013-04-17 22:22:00,
2013-04-17 18:33:00,66.0,40.0,30.19,SSE,149,2.0,7.0,39,0.00,,,0.01,,2013-04-17 22:33:00,
2013-04-17 18:42:00,66.0,40.0,30.19,SSE,149,2.0,7.0,39,0.00,,,0.01,,2013-04-17 22:42:00,
2013-04-17 18:53:00,66.0,41.0,30.19,South,174,3.0,6.0,40,0.00,,,0.01,,2013-04-17 22:53:00,
2013-04-17 19:02:00,65.0,39.0,30.20,SE,144,4.0,6.0,39,0.00,,,0.01,,2013-04-17 23:02:00,
2013-04-17 19:12:00,65.0,39.0,30.20,SE,144,4.0,6.0,39,0.00,,,0.01,,2013-04-17 23:12:00,
2013-04-17 19:22:00,64.0,39.0,30.20,SSE,163,2.0,5.0,40,0.00,,,0.01,,2013-04-17 23:22:00,
2013-04-17 19:32:00,62.0,40.0,30.21,SE,132,3.0,7.0,44,0.00,,,0.01,,2013-04-17 23:32:00,
2013-04-17 19:42:00,62.0,42.0,30.21,SSE,154,3.0,6.0,48,0.00,,,0.01,,2013-04-17 23:42:00,
2013-04-17 19:52:00,62.0,42.0,30.21,SSE,154,3.0,6.0,48,0.00,,,0.01,,2013-04-17 23:52:00,
2013-04-17 20:02:00,61.0,44.0,30.21,SSE,158,2.0,5.0,53,0.00,,,0.01,,2013-04-18 00:02:00,
2013-04-17 20:12:00,61.0,44.0,30.21,SSE,158,2.0,5.0,53,0.00,,,0.01,,2013-04-18 00:12:00,
2013-04-17 20:22:00,59.0,44.0,30.22,SSE,149,1.0,6.0,57,0.00,,,0.01,,2013-04-18 00:22:00,
2013-04-17 20:32:00,58.0,43.0,30.22,South,173,2.0,5.0,57,0.00,,,0.01,,2013-04-18 00:32:00,
2013-04-17 20:42:00,57.0,42.0,30.23,South,176,1.0,6.0,57,0.00,,,0.01,,2013-04-18 00:42:00,
2013-04-17 20:52:00,57.0,42.0,30.23,South,176,1.0,6.0,57,0.00,,,0.01,,2013-04-18 00:52:00,
2013-04-17 21:02:00,57.0,41.0,30.24,SSE,163,2.0,5.0,55,0.00,,,0.01,,2013-04-18 01:02:00,
2013-04-17 21:12:00,57.0,41.0,30.24,SSE,152,0.0,3.0,54,0.00,,,0.01,,2013-04-18 01:12:00,
2013-04-17 21:22:00,57.0,41.0,30.24,SSE,152,0.0,3.0,54,0.00,,,0.01,,2013-04-18 01:22:00,
2013-04-17 21:32:00,57.0,40.0,30.25,SSE,161,2.0,5.0,52,0.00,,,0.01,,2013-04-18 01:32:00,
2013-04-17 21:42:00,57.0,40.0,30.25,SSE,161,2.0,5.0,52,0.00,,,0.01,,2013-04-18 01:42:00,
2013-04-17 21:52:00,57.0,40.0,30.25,SSE,161,2.0,5.0,52,0.00,,,0.01,,2013-04-18 01:52:00,
2013-04-17 22:02:00,57.0,40.0,30.26,SE,143,1.0,2.0,52,0.00,,,0.01,,2013-04-18 02:02:00,
2013-04-17 22:12:00,57.0,40.0,30.26,SE,143,1.0,2.0,52,0.00,,,0.01,,2013-04-18 02:12:00,
2013-04-17 22:22:00,57.0,40.0,30.26,SSE,153,0.0,1.0,52,0.00,,,0.01,,2013-04-18 02:22:00,
2013-04-17 22:32:00,57.0,40.0,30.26,SSE,162,1.0,3.0,52,0.00,,,0.01,,2013-04-18 02:32:00,
2013-04-17 22:42:00,57.0,40.0,30.26,SSE,162,1.0,3.0,52,0.00,,,0.01,,2013-04-18 02:42:00,
2013-04-17 22:52:00,57.0,40.0,30.26,SSE,162,1.0,3.0,52,0.00,,,0.01,,2013-04-18 02:52:00,
2013-04-17 23:02:00,56.0,40.0,30.25,SSE,156,2.0,4.0,55,0.00,,,0.01,,2013-04-18 03:02:00,
2013-04-17 23:12:00,56.0,41.0,30.25,SSE,158,2.0,3.0,56,0.00,,,0.01,,2013-04-18 03:12:00,
2013-04-17 23:22:00,56.0,41.0,30.25,SSE,158,2.0,3.0,56,0.00,,,0.01,,2013-04-18 03:22:00,
2013-04-17 23:33:00,56.0,41.0,30.26,SSE,159,1.0,3.0,56,0.00,,,0.01,,2013-04-18 03:33:00,
2013-04-17 23:43:00,55.0,40.0,30.26,SE,146,0.0,2.0,57,0.00,,,0.01,,2013-04-18 03:43:00,
2013-04-17 23:53:00,55.0,40.0,30.26,SE,146,0.0,2.0,57,0.00,,,0.01,,2013-04-18 03:53:00,